User: anonymous   Login
Location: Wildcat Hills Observatory
(41.6350°N, 103.6812°W)
Time: 04:14:54
(UTC-06:00)
Language:

Cosmos 1634 Rocket - Orbit

View from above orbital plane
View from above orbital plane
View from above satellite
View from above satellite

Ground track
Ground track

The orbit data is extracted from the following two-line orbital elements,

1 15598U 85022B   16270.18561431  .00000117  00000-0  10344-3 0  9994
2 15598  82.9355 303.3357 0023382 125.8172 296.1272 13.76544539584148
Epoch (UTC): 26 September 2016 04:27:17
Eccentricity: 0.0023382
inclination: 82.9355°
perigee height: 959 km
apogee height: 993 km
right ascension of ascending node: 303.3357°
argument of perigee: 125.8172°
revolutions per day: 13.76544539
mean anomaly at epoch: 296.1272°
orbit number at epoch: 58414

The dashed part of the orbit path shows where the satellite is in the earth's shadow,  

DLR